{"data":{"norad_id":55054,"epoch":"2026-05-25T02:30:21.092256Z","epoch_age_seconds":66051,"freshness":"FRESH","line1":"1 55054U 23001AX  26145.10441079  .00005018  00000+0  18068-3 0  9998","line2":"2 55054  97.3235 202.8331 0008924 204.1834 155.8988 15.28997288188194","mean_motion":15.28997288,"eccentricity":0.0008924,"inclination_deg":97.3235,"raan_deg":202.8331,"arg_perigee_deg":204.1834,"mean_anomaly_deg":155.8988,"bstar":0.00018068,"rev_number":18819,"period_min":94.1793691396,"perigee_km":472.68936624632,"apogee_km":484.9276425826,"semimajor_km":6856.9455044145,"source":"CELESTRAK","updated_at":"2026-05-25T13:37:58.813079Z"}}